Regional Weather Roundup
Issued by NWS

Home | Current Version | Previous Version | Text Only | Print | Product List | Glossary Off
Versions: 1 2 3 4 5 6 7 8 9 10 11 12 13 14 15 16 17 18 19 20 21 22 23 24 25 26 27 28

000
ASUS45 KSLC 291410
RWRUT

UTAH REGIONAL WEATHER ROUNDUP
NATIONAL WEATHER SERVICE SALT LAKE CITY UT
800 AM MDT WED OCT 29 2014

UTZ001>011-023>025-291500-

NORTHERN UTAH

CITY           SKY/WX    TMP DP  RH WIND       PRES   REMARKS
BRIGHAM CITY   CLOUDY    31  24  76 CALM      30.30R
HILL AFB       CLEAR     38  15  38 E15       30.29R WCI  29
LOGAN          CLOUDY    27  22  81 SW3       30.29S
OGDEN          PTCLDY    36  17  46 S9        30.28R WCI  29
PROVO AIRPORT  PTCLDY    34  18  51 S5        30.31R WCI  30
SALT LAKE CITY PTCLDY    39  24  55 SE8       30.28R WCI  33
VERNAL         CLEAR     27  18  69 CALM      30.32R
WENDOVER       MOCLDY    34  21  60 CALM      30.29R
HEBER CITY     CLEAR     21  16  79 CALM      30.33S
WEST JORDAN    CLEAR     41  25  52 CALM      30.29R

$$

UTZ012>022-026-027-291500-

SOUTHERN/CENTRAL UTAH

CITY           SKY/WX    TMP DP  RH WIND       PRES   REMARKS
BLANDING       PTCLDY    37  14  38 NE3       30.38R
BRYCE CANYON   MOCLDY    23  14  68 W12       30.38S WCI  12
CEDAR CITY     MOCLDY    25  15  66 S3        30.29R
DELTA          MOCLDY    34  16  48 CALM      30.29R
HANKSVILLE       N/A     30  12  47 CALM      30.33R
MILFORD        MOCLDY    26  14  60 SE7       30.30R WCI  18
MOAB/CYNLANDS  CLEAR     32  11  41 SW3       30.30R
PRICE          PTCLDY    32  10  40 CALM      30.32R
ST GEORGE      SUNNY     45  12  26 SE5       30.24S
KANAB            N/A     41  18  38 N12       30.32R

$$

REGIONAL REPORTS     COLORADO/ARIZONA

CITY           SKY/WX    TMP DP  RH WIND       PRES   REMARKS
CRAIG, CO      CLEAR     21  15  78 W5        30.33S WCI  15
GRAND JUNCTION CLEAR     29  15  56 E3        30.32R
RIFLE          CLEAR     23  14  68 SE3       30.37R
MONTROSE       PTCLDY    29  16  58 S7        30.36R WCI  22
CORTEZ         CLEAR     25  14  63 NE6       30.34R WCI  18
PAGE, AZ       PTCLDY    47  21  35 CALM      30.28R
GRAND CANYON   PTCLDY    27  18  69 NE3       30.34R
KINGMAN        CLEAR     46  27  47 E6        30.18R
FLAGSTAFF      PTCLDY    30  26  85 CALM      30.35R

$$

REGIONAL REPORTS    NEVADA/IDAHO/WYOMING

CITY           SKY/WX    TMP DP  RH WIND       PRES   REMARKS
LAS VEGAS, NV  CLEAR     58  19  22 S6        30.11R
ELY            PTCLDY    26  12  55 S15       30.33R WCI  14
ELKO           MOCLDY    25  13  60 CALM      30.30R
POCATELLO, ID  MOCLDY    37  25  61 CALM      30.24R
BURLEY         CLOUDY    37  28  70 CALM      30.21S
EVANSTON, WY   PTCLDY    32   8  36 SW6       30.31R WCI  26
ROCK SPRINGS   CLEAR     34   8  33 SW18      30.28S WCI  23

$$



USA.gov is the U.S. government's official web portal to all federal, state and local government web resources and services.